User: anonymous   Login
Location: Valley View Observatory
(41.0081°N, 76.5874°W)
Time: 08:16:47
(UTC-04:00)
Language:

Cosmos 2237 Rocket - Orbit

View from above orbital plane
View from above orbital plane
View from above satellite
View from above satellite

Ground track
Ground track

The orbit data is extracted from the following two-line orbital elements,

1 22566U 93016B   15247.53153620 -.00000089  00000-0 -21461-4 0  9991
2 22566  71.0107 354.7409 0008966  33.0600 327.1081 14.14912063159099
Epoch (UTC): 04 September 2015 12:45:24
Eccentricity: 0.0008966
inclination: 71.0107°
perigee height: 836 km
apogee height: 849 km
right ascension of ascending node: 354.7409°
argument of perigee: 33.0600°
revolutions per day: 14.14912063
mean anomaly at epoch: 327.1081°
orbit number at epoch: 15909

The dashed part of the orbit path shows where the satellite is in the earth's shadow,  

DLR